Home > Weather > Asker > Past weeks

Flag for Norway Weather for the Past 2 Weeks in Asker, Norway

Now
46 °F

Light rain. Overcast.


Feels Like: 36 °F
Forecast: 41 / 59 °F
Wind: 40 mph from South

Location: Statfjord B

Current Time: May 5, 2016 at 3:11:35 AM

Latest Report: May 5, 2016 at 2:20 AM


Visibility: 5 mi

Pressure: 30.01 "Hg

Humidity: 93%

Dew Point: 45 °F

Location of AskerLocation

Historic Weather in Asker — Graph

°F

Asker Temperature Yesterday

Maximum temperature yesterday: 50 °F (at 8:50 AM)
Minimum temperature yesterday: 45 °F (at 3:50 AM)
Average temperature yesterday: 47 °F

High & Low Weather Summary for the Past Weeks

 TemperatureHumidityPressure
High50 °F (May 4, 8:50 AM)100% (Apr 20, 2:20 PM)30.33 "Hg (Apr 20, 2:20 PM)
Low30 °F (Apr 23, 6:20 AM)50% (Apr 28, 10:50 AM)29.53 "Hg (May 2, 9:50 AM)
Average42 °F77%29.93 "Hg
* Reported Apr 20 1:20 AM — May 5 1:50 AM, Asker, Weather by CustomWeather, © 2016

Note: Actual official high and low records may vary slightly from our data, if they occured in-between our weather recording intervals... More about our weather records

Advertising

Asker Weather History for the Previous 24 Hours

Scroll right to see more
 ConditionsComfort  
Time TempWeatherWind HumidityBarometerVisibility
1:50 AM
Thu, May 5
46 °FPassing clouds.40 mph87%30.01 "HgN/A
1:20 AM46 °FOvercast.39 mph87%30.01 "HgN/A
12:50 AM46 °FPassing clouds.39 mph87%30.01 "HgN/A
12:20 AM46 °FOvercast.40 mph87%30.01 "HgN/A
11:50 PM
Wed, May 4
46 °FOvercast.44 mph87%30.01 "HgN/A
11:20 PM46 °FPassing clouds.43 mph87%30.01 "HgN/A
10:50 PM46 °FPartly cloudy.44 mph87%30.01 "HgN/A
10:20 PM46 °FPassing clouds.43 mph87%30.01 "HgN/A
9:50 PM46 °FPartly sunny.44 mph87%30.01 "HgN/A
9:20 PM46 °FPartly sunny.45 mph87%30.01 "HgN/A
8:50 PM46 °FBroken clouds.47 mph87%30.01 "HgN/A
8:20 PM46 °FPartly sunny.47 mph87%30.01 "HgN/A
7:50 PM46 °FPartly sunny.48 mph87%30.01 "HgN/A
7:20 PM48 °FPartly sunny.45 mph82%30.01 "HgN/A
6:50 PM48 °FPartly sunny.47 mph82%30.01 "HgN/A
6:20 PM48 °FPartly sunny.46 mph82%30.01 "HgN/A
5:50 PM48 °FPartly sunny.47 mph82%30.01 "HgN/A
5:20 PM48 °FPartly sunny.46 mph82%30.04 "HgN/A
4:50 PM48 °FBroken clouds.46 mph82%30.04 "HgN/A
4:20 PM48 °FPartly sunny.47 mph82%30.04 "HgN/A
3:50 PM48 °FPartly sunny.46 mph82%30.04 "HgN/A
3:20 PM48 °FScattered clouds.43 mph82%30.04 "HgN/A
2:50 PM48 °FPartly sunny.40 mph82%30.07 "HgN/A
2:20 PM48 °FScattered clouds.38 mph82%30.07 "HgN/A
1:50 PM48 °FPassing clouds.39 mph82%30.07 "HgN/A
1:20 PM48 °FScattered clouds.38 mph82%30.07 "HgN/A
12:50 PM48 °FScattered clouds.39 mph82%30.07 "HgN/A
12:20 PM48 °FPartly sunny.43 mph82%30.07 "HgN/A
11:50 AM48 °FCool.36 mph76%30.07 "HgN/A
11:20 AM48 °FScattered clouds.36 mph76%30.07 "HgN/A
10:50 AM48 °FPartly sunny.36 mph82%30.09 "HgN/A
10:20 AM48 °FPartly sunny.32 mph82%30.09 "HgN/A
9:50 AM48 °FScattered clouds.30 mph82%30.09 "HgN/A
9:20 AM46 °FCool.30 mph87%30.09 "HgN/A
8:50 AM50 °FCool.32 mph76%30.09 "HgN/A
8:20 AM48 °FCool.31 mph82%30.09 "HgN/A
7:50 AM46 °FCool.29 mph87%30.09 "HgN/A
7:20 AM46 °FCool.25 mph87%30.09 "HgN/A
6:50 AM46 °FCool.25 mph87%30.09 "HgN/A
6:20 AM46 °FPartly sunny.29 mph87%30.07 "HgN/A
5:50 AM46 °FPassing clouds.28 mph87%30.07 "HgN/A
5:20 AM46 °FPassing clouds.26 mph87%30.07 "HgN/A
4:50 AM46 °FPassing clouds.28 mph87%30.07 "HgN/A
4:20 AM46 °FPassing clouds.28 mph87%30.04 "HgN/A
3:50 AM45 °FQuite cool.28 mph93%30.04 "HgN/A
3:20 AM46 °FCool.29 mph87%30.04 "HgN/A
Weather by CustomWeather, © 2016

See weather overviewHow to use our weather pages